EW8484 Weather Reports


time (UTC)temp
C
wind
direction
speed
KPH
gust
KPH
rain 1hr
cm
rain 24hr
cm
rain mn
cm
humidity
%
barometer
mb
20260504193047 22 2 6.4 20.9 0.00 0.00 0.00 23 1009.3
20260504192526 22 49 6.4 16.1 0.00 0.00 0.00 22 1009.5
20260504192026 22 74 3.2 9.7 0.00 0.00 0.00 25 1009.3
20260504191527 22 315 3.2 8.0 0.00 0.00 0.00 25 1009.5
20260504191107 22 215 4.8 14.5 0.00 0.00 0.00 21 1009.5
20260504190547 22 288 3.2 9.7 0.00 0.00 0.00 21 1009.5
20260504190026 22 195 3.2 11.3 0.00 0.00 0.00 21 1009.6
20260504185546 22 243 4.8 12.9 0.00 0.00 0.00 24 1009.6
20260504185026 22 355 4.8 12.9 0.00 0.00 0.00 26 1009.6
20260504184526 21 174 4.8 8.0 0.00 0.00 0.00 21 1009.5
20260504184026 21 146 4.8 11.3 0.00 0.00 0.00 26 1009.6
20260504183526 21 255 4.8 12.9 0.00 0.00 0.00 25 1009.8
20260504183026 21 222 4.8 12.9 0.00 0.00 0.00 22 1009.7
20260504182526 21 253 4.8 16.1 0.00 0.00 0.00 21 1009.8
20260504182026 21 227 4.8 20.9 0.00 0.00 0.00 21 1009.7
20260504181527 21 181 4.8 14.5 0.00 0.00 0.00 25 1009.7
20260504181047 21 167 4.8 11.3 0.00 0.00 0.00 25 1009.9
20260504180526 21 205 6.4 12.9 0.00 0.00 0.00 22 1009.9
20260504180026 21 148 4.8 14.5 0.00 0.00 0.00 22 1009.8
20260504175527 21 171 6.4 20.9 0.00 0.00 0.00 22 1009.9
20260504175026 21 167 4.8 14.5 0.00 0.00 0.00 23 1009.9
20260504174526 21 223 4.8 12.9 0.00 0.00 0.00 21 1009.9
20260504174026 21 208 4.8 14.5 0.00 0.00 0.00 25 1010.0
20260504173526 21 178 4.8 11.3 0.00 0.00 0.00 26 1009.9
20260504173026 21 297 4.8 9.7 0.00 0.00 0.00 21 1010.0
20260504172526 21 267 4.8 8.0 0.00 0.00 0.00 23 1010.2
20260504172026 21 242 4.8 14.5 0.00 0.00 0.00 19 1010.3
20260504171526 21 153 4.8 9.7 0.00 0.00 0.00 29 1010.1
20260504171046 20 88 3.2 12.9 0.00 0.00 0.00 26 1010.2
20260504170526 20 114 4.8 12.9 0.00 0.00 0.00 25 1010.5
20260504151026 18 212 4.8 12.9 0.00 0.00 0.00 26 1011.7
20260504150526 18 238 4.8 11.3 0.00 0.00 0.00 30 1011.9
20260504141026 16 233 4.8 9.7 0.00 0.00 0.00 33 1012.3
20260504140526 16 224 4.8 11.3 0.00 0.00 0.00 34 1012.3
20260504130526 13 272 3.2 12.9 0.00 0.00 0.00 46 1012.8
20260504110548 2 23 1.6 3.2 0.00 0.00 0.00 50 1013.2
20260504100527 0 0.0 1.6 0.00 0.00 0.00 46 1012.8
20260504081527 2 0.0 0.0 0.00 0.00 0.00 43 1012.7
20260504081047 2 0.0 0.0 0.00 0.00 0.00 43 1012.5
20260504080547 2 0.0 0.0 0.00 0.00 0.00 44 1012.7
20260504050527 1 0.0 3.2 0.00 0.00 0.00 62 1012.7
20260504045526 1 0.0 0.0 0.00 0.00 0.00 62 1012.8
20260504045027 1 0.0 0.0 0.00 0.00 0.00 62 1012.7
20260504044526 1 0.0 0.0 0.00 0.00 0.00 62 1012.8
20260504044026 1 0.0 0.0 0.00 0.00 0.00 62 1012.9
20260504043526 1 0.0 0.0 0.00 0.00 0.00 62 1012.9
20260504043047 1 0.0 0.0 0.00 0.00 0.00 62 1012.8
20260504042546 1 0.0 0.0 0.00 0.00 0.00 62 1012.8
20260504042026 2 0.0 0.0 0.00 0.00 0.00 62 1012.8
20260504041526 2 0.0 0.0 0.00 0.00 0.00 62 1012.8
20260504041026 1 0.0 0.0 0.00 0.00 0.00 62 1012.9
20260504040526 1 0.0 0.0 0.00 0.00 0.00 62 1012.8
20260504040027 1 0.0 0.0 0.00 0.00 0.00 61 1012.8
20260504035527 1 0.0 0.0 0.00 0.00 0.00 61 1012.7
20260504035047 1 0.0 0.0 0.00 0.00 0.00 61 1012.7
20260504034526 2 0.0 0.0 0.00 0.00 0.00 61 1012.6
20260504034027 2 0.0 0.0 0.00 0.00 0.00 61 1012.5
20260504033527 2 0.0 0.0 0.00 0.00 0.00 61 1012.3
20260504033026 2 0.0 0.0 0.00 0.00 0.00 61 1012.4
20260504032527 2 0.0 0.0 0.00 0.00 0.00 62 1012.4
20260504032027 2 0.0 0.0 0.00 0.00 0.00 60 1012.3
20260504031547 2 0.0 0.0 0.00 0.00 0.00 60 1012.2
20260504031026 2 0.0 0.0 0.00 0.00 0.00 60 1012.1
20260504030527 2 0.0 0.0 0.00 0.00 0.00 60 1012.2
20260504030027 2 0.0 0.0 0.00 0.00 0.00 59 1012.2
20260504025527 2 0.0 0.0 0.00 0.00 0.00 59 1012.3
20260504025026 2 0.0 0.0 0.00 0.00 0.00 58 1012.2
20260504024527 2 0.0 0.0 0.00 0.00 0.00 58 1012.2
20260504024027 2 0.0 0.0 0.00 0.00 0.00 57 1012.2
20260504023547 2 0.0 0.0 0.00 0.00 0.00 56 1012.2
20260504023026 2 0.0 0.0 0.00 0.00 0.00 56 1012.2
20260504022526 2 0.0 0.0 0.00 0.00 0.00 57 1012.2
20260504022026 2 0.0 0.0 0.00 0.00 0.00 57 1012.2
20260504021527 3 0.0 0.0 0.00 0.00 0.00 57 1012.1
20260504021047 3 0.0 1.6 0.00 0.00 0.00 57 1012.2
20260504020527 3 0.0 0.0 0.00 0.00 0.00 57 1012.1
20260504020027 3 0.0 1.6 0.00 0.00 0.00 55 1012.1
20260504015526 3 0.0 3.2 0.00 0.00 0.00 55 1012.0
20260504015047 2 0.0 3.2 0.00 0.00 0.00 56 1012.0
20260504014547 2 0.0 3.2 0.00 0.00 0.00 57 1011.9
20260504014026 2 0.0 3.2 0.00 0.00 0.00 57 1011.9
20260504013547 2 0.0 3.2 0.00 0.00 0.00 57 1011.8
20260504013047 3 0.0 3.2 0.00 0.00 0.00 56 1011.8
20260504012547 3 0.0 1.6 0.00 0.00 0.00 55 1011.8
20260504012027 3 0.0 0.0 0.00 0.00 0.00 54 1011.7
20260504011547 3 0.0 0.0 0.00 0.00 0.00 54 1011.6
20260504011027 3 0.0 0.0 0.00 0.00 0.00 53 1011.6
20260504010526 3 0.0 0.0 0.00 0.00 0.00 53 1011.6
20260504010027 4 0.0 0.0 0.00 0.00 0.00 52 1011.5
20260504005526 4 0.0 0.0 0.00 0.00 0.00 52 1011.3
20260504005047 5 0.0 0.0 0.00 0.00 0.00 51 1011.3
20260504004526 5 0.0 0.0 0.00 0.00 0.00 51 1011.1
20260504004047 5 0.0 0.0 0.00 0.00 0.00 50 1011.1
20260504003546 5 0.0 1.6 0.00 0.00 0.00 47 1011.1
20260504003026 6 0.0 0.0 0.00 0.00 0.00 46 1010.9
20260504002526 6 0.0 0.0 0.00 0.00 0.00 47 1010.9
20260504002026 6 0.0 0.0 0.00 0.00 0.00 44 1010.9
20260504001526 7 0.0 0.0 0.00 0.00 0.00 43 1010.9
20260504001026 7 0.0 0.0 0.00 0.00 0.00 43 1010.7
20260504000526 7 0.0 0.0 0.00 0.00 0.00 45 1010.8
20260504000026 8 0.0 0.0 0.00 0.00 0.00 44 1010.6
20260503235526 8 0.0 0.0 0.00 0.00 0.00 37 1010.7
20260503235026 8 355 1.6 3.2 0.00 0.00 0.00 37 1010.6
20260503234526 8 0.0 1.6 0.00 0.00 0.00 35 1010.6
20260503234026 9 0.0 3.2 0.00 0.00 0.00 33 1010.6
20260503233526 9 0.0 1.6 0.00 0.00 0.00 32 1010.6
20260503233026 10 0.0 3.2 0.00 0.00 0.00 31 1010.5
20260503232547 10 346 1.6 6.4 0.00 0.00 0.00 30 1010.5
20260503232026 10 338 1.6 11.3 0.00 0.00 0.00 31 1010.5
20260503231526 10 355 1.6 6.4 0.00 0.00 0.00 32 1010.4
20260503231026 10 344 1.6 9.7 0.00 0.00 0.00 33 1010.4
20260503230526 10 352 6.4 17.7 0.00 0.00 0.00 27 1010.4
20260503230026 10 346 6.4 14.5 0.00 0.00 0.00 29 1010.4
20260503225526 10 335 3.2 11.3 0.00 0.00 0.00 29 1010.3
20260503225026 10 339 8.0 17.7 0.00 0.00 0.00 29 1010.3
20260503224606 10 354 6.4 19.3 0.00 0.00 0.00 29 1010.3
20260503224026 10 327 3.2 14.5 0.00 0.00 0.00 31 1010.2
20260503223526 10 339 3.2 16.1 0.00 0.00 0.00 29 1010.3
20260503223026 10 351 1.6 4.8 0.00 0.00 0.00 29 1010.3
20260503222526 10 345 4.8 14.5 0.00 0.00 0.00 29 1010.3
20260503222026 11 345 6.4 19.3 0.00 0.00 0.00 29 1010.2
20260503221526 11 348 8.0 19.3 0.00 0.00 0.00 29 1010.2
20260503221026 11 357 8.0 17.7 0.00 0.00 0.00 29 1010.3
20260503220526 11 344 6.4 17.7 0.00 0.00 0.00 31 1010.3
20260503220046 11 346 8.0 16.1 0.00 0.00 0.00 30 1010.2
20260503215526 11 352 9.7 19.3 0.00 0.00 0.00 27 1010.3
20260503215026 11 345 4.8 9.7 0.00 0.00 0.00 29 1010.2
20260503214526 11 336 8.0 17.7 0.00 0.00 0.00 28 1010.2
20260503214026 11 341 6.4 16.1 0.00 0.00 0.00 31 1010.3
20260503213526 11 341 8.0 19.3 0.00 0.00 0.00 28 1010.2
20260503213026 11 334 6.4 12.9 0.00 0.00 0.00 27 1010.1
20260503212526 11 340 8.0 17.7 0.00 0.00 0.00 27 1010.0
20260503212026 11 344 11.3 20.9 0.00 0.00 0.00 27 1009.9
20260503211526 11 343 12.9 25.7 0.00 0.00 0.00 27 1010.0
20260503211026 11 344 11.3 22.5 0.00 0.00 0.00 28 1009.9
20260503210526 11 342 11.3 25.7 0.00 0.00 0.00 26 1009.8
20260503210026 11 343 12.9 32.2 0.00 0.00 0.00 25 1009.9
20260503205526 11 343 6.4 14.5 0.00 0.00 0.00 27 1009.7
20260503205026 11 343 6.4 20.9 0.00 0.00 0.00 32 1009.7
20260503204526 11 328 6.4 20.9 0.00 0.00 0.00 31 1009.8
20260503204147 11 314 6.4 16.1 0.00 0.00 0.00 31 1009.8
20260503203526 10 342 6.4 14.5 0.00 0.00 0.00 32 1009.7
20260503203026 10 337 6.4 17.7 0.00 0.00 0.00 31 1009.7
20260503202526 11 333 8.0 20.9 0.00 0.00 0.00 29 1009.6
20260503202026 11 337 6.4 17.7 0.00 0.00 0.00 30 1009.6
20260503201526 11 298 4.8 16.1 0.00 0.00 0.00 30 1009.6
20260503201025 11 335 6.4 17.7 0.00 0.00 0.00 31 1009.5
20260503200526 11 345 11.3 24.1 0.00 0.00 0.00 29 1009.5
20260503200026 11 338 8.0 17.7 0.00 0.00 0.00 29 1009.5
20260503195546 11 344 6.4 22.5 0.00 0.00 0.00 30 1009.4
20260503195026 11 344 9.7 19.3 0.00 0.00 0.00 30 1009.6
20260503194526 11 355 8.0 22.5 0.00 0.00 0.00 30 1009.5
20260503194025 10 355 8.0 27.4 0.00 0.00 0.00 31 1009.5
20260503193526 10 335 4.8 12.9 0.00 0.00 0.00 34 1009.5